NLK YHBA-YRED

Flight info

Callsign NLK
Flight time 0h 48m
Altitude 9000
Route N0181A090 DCT HAAVI Z70 SU DCT
Aircraft C208/L-SDFGR/C

Departure

Time 2026-04-19 06:41
Airport Hervey Bay Airport (YHBA)

Arrival

Time 2026-04-19 07:30
Airport Redcliffe Airport (YRED)
Time Latitude Longitude Altitude Speed Heading
2026-04-19 06:34 -25.32186 152.88661 47 ft 0 kts 31°
2026-04-19 06:38 -25.32181 152.88659 47 ft 3 kts 302°
2026-04-19 06:39 -25.32154 152.88576 48 ft 21 kts 285°
2026-04-19 06:39 -25.32126 152.88459 48 ft 11 kts 216°
2026-04-19 06:39 -25.32176 152.88409 47 ft 12 kts 265°
2026-04-19 06:39 -25.32120 152.88285 48 ft 24 kts 298°
2026-04-19 06:40 -25.32064 152.88185 52 ft 4 kts 196°
2026-04-19 06:40 -25.32074 152.88195 51 ft 0 kts 117°
2026-04-19 06:40 -25.32122 152.88290 48 ft 46 kts 119°
2026-04-19 06:40 -25.32375 152.88765 167 ft 87 kts 121°
2026-04-19 06:41 -25.32722 152.89361 490 ft 100 kts 126°
2026-04-19 06:41 -25.33323 152.89800 821 ft 114 kts 159°
2026-04-19 06:41 -25.34132 152.89758 1138 ft 123 kts 194°
2026-04-19 06:41 -25.34886 152.89253 1475 ft 128 kts 207°
2026-04-19 06:42 -25.35713 152.89085 1823 ft 122 kts 165°
2026-04-19 06:42 -25.36553 152.89239 2170 ft 124 kts 168°
2026-04-19 06:42 -25.37411 152.89364 2512 ft 122 kts 167°
2026-04-19 06:42 -25.38248 152.89518 2857 ft 122 kts 163°
2026-04-19 06:43 -25.39081 152.89681 3211 ft 122 kts 165°
2026-04-19 06:43 -25.39924 152.89824 3553 ft 123 kts 169°
2026-04-19 06:43 -25.40772 152.89955 3890 ft 122 kts 170°
2026-04-19 06:43 -25.41608 152.90087 4257 ft 121 kts 172°
2026-04-19 06:44 -25.42424 152.90214 4620 ft 119 kts 173°
2026-04-19 06:44 -25.43242 152.90344 4985 ft 118 kts 174°
2026-04-19 06:44 -25.44050 152.90473 5348 ft 117 kts 174°
2026-04-19 06:44 -25.44850 152.90599 5712 ft 115 kts 174°
2026-04-19 06:45 -25.45640 152.90716 6080 ft 114 kts 175°
2026-04-19 06:45 -25.46422 152.90838 6451 ft 112 kts 174°
2026-04-19 06:45 -25.47186 152.90958 6799 ft 110 kts 174°
2026-04-19 06:45 -25.47940 152.91077 7147 ft 109 kts 174°
2026-04-19 06:46 -25.48700 152.91198 7446 ft 114 kts 173°
2026-04-19 06:46 -25.49510 152.91328 7696 ft 120 kts 173°
2026-04-19 06:46 -25.50354 152.91464 7951 ft 124 kts 173°
2026-04-19 06:46 -25.51220 152.91602 8205 ft 127 kts 173°
2026-04-19 06:47 -25.52099 152.91742 8461 ft 128 kts 173°
2026-04-19 06:47 -25.52989 152.91884 8715 ft 129 kts 173°
2026-04-19 06:47 -25.53879 152.92027 8971 ft 129 kts 173°
2026-04-19 06:47 -25.54811 152.92176 9015 ft 142 kts 173°
2026-04-19 06:48 -25.55803 152.92336 9021 ft 150 kts 172°
2026-04-19 06:48 -25.56855 152.92506 9021 ft 154 kts 172°
2026-04-19 06:48 -25.57926 152.92681 9022 ft 157 kts 172°
2026-04-19 06:48 -25.59005 152.92855 9023 ft 157 kts 173°
2026-04-19 06:49 -25.60087 152.93027 9024 ft 157 kts 173°
2026-04-19 06:49 -25.61172 152.93198 9025 ft 158 kts 173°
2026-04-19 06:49 -25.62259 152.93372 9025 ft 157 kts 173°
2026-04-19 06:49 -25.63343 152.93545 9024 ft 158 kts 173°
2026-04-19 06:50 -25.64429 152.93718 9019 ft 158 kts 172°
2026-04-19 06:50 -25.65517 152.93892 9019 ft 158 kts 173°
2026-04-19 06:50 -25.66604 152.94058 9019 ft 158 kts 174°
2026-04-19 06:50 -25.67690 152.94220 9020 ft 158 kts 173°
2026-04-19 06:51 -25.68776 152.94393 9020 ft 158 kts 173°
2026-04-19 06:51 -25.69866 152.94568 9021 ft 158 kts 173°
2026-04-19 06:51 -25.70942 152.94740 9021 ft 158 kts 173°
2026-04-19 06:51 -25.72037 152.94915 9022 ft 159 kts 173°
2026-04-19 06:52 -25.73129 152.95090 9024 ft 158 kts 173°
2026-04-19 06:52 -25.74222 152.95266 9023 ft 159 kts 173°
2026-04-19 06:52 -25.75315 152.95440 9023 ft 158 kts 173°
2026-04-19 06:52 -25.76402 152.95613 9022 ft 157 kts 173°
2026-04-19 06:53 -25.77485 152.95786 9020 ft 157 kts 173°
2026-04-19 06:53 -25.78567 152.95959 9021 ft 157 kts 173°
2026-04-19 06:53 -25.79647 152.96131 9019 ft 157 kts 173°
2026-04-19 06:53 -25.80726 152.96304 9017 ft 157 kts 173°
2026-04-19 06:54 -25.81808 152.96477 9020 ft 157 kts 173°
2026-04-19 06:54 -25.82887 152.96650 9017 ft 157 kts 173°
2026-04-19 06:54 -25.83965 152.96823 9019 ft 157 kts 173°
2026-04-19 06:54 -25.85047 152.96995 9019 ft 157 kts 173°
2026-04-19 06:55 -25.86115 152.97166 9020 ft 157 kts 173°
2026-04-19 06:55 -25.87192 152.97339 9019 ft 155 kts 173°
2026-04-19 06:55 -25.88255 152.97510 9016 ft 153 kts 173°
2026-04-19 06:55 -25.89311 152.97678 9016 ft 153 kts 173°
2026-04-19 06:56 -25.90373 152.97848 9016 ft 155 kts 173°
2026-04-19 06:56 -25.91445 152.98019 9018 ft 156 kts 173°
2026-04-19 06:56 -25.92523 152.98192 9018 ft 156 kts 173°
2026-04-19 06:56 -25.93600 152.98364 9019 ft 156 kts 173°
2026-04-19 06:57 -25.94682 152.98537 9016 ft 157 kts 173°
2026-04-19 06:57 -25.95763 152.98711 9015 ft 157 kts 173°
2026-04-19 06:57 -25.96843 152.98884 9018 ft 157 kts 174°
2026-04-19 06:57 -25.97925 152.99058 9019 ft 157 kts 174°
2026-04-19 06:58 -25.99003 152.99231 9022 ft 156 kts 174°
2026-04-19 06:58 -26.00079 152.99403 9021 ft 156 kts 174°
2026-04-19 06:58 -26.01140 152.99573 9022 ft 156 kts 174°
2026-04-19 06:58 -26.02216 152.99746 9023 ft 156 kts 174°
2026-04-19 06:59 -26.03294 152.99918 9023 ft 156 kts 174°
2026-04-19 06:59 -26.04373 153.00093 9025 ft 156 kts 174°
2026-04-19 06:59 -26.05451 153.00266 9024 ft 156 kts 174°
2026-04-19 06:59 -26.06527 153.00438 9023 ft 156 kts 174°
2026-04-19 07:00 -26.07603 153.00610 9023 ft 156 kts 174°
2026-04-19 07:00 -26.08685 153.00786 8965 ft 159 kts 174°
2026-04-19 07:00 -26.09777 153.00960 8962 ft 158 kts 174°
2026-04-19 07:00 -26.10859 153.01134 8962 ft 157 kts 174°
2026-04-19 07:01 -26.11936 153.01307 8962 ft 156 kts 174°
2026-04-19 07:01 -26.13014 153.01480 8961 ft 156 kts 174°
2026-04-19 07:01 -26.14089 153.01652 8959 ft 156 kts 174°
2026-04-19 07:01 -26.15164 153.01825 8961 ft 156 kts 173°
2026-04-19 07:02 -26.16240 153.01999 8961 ft 156 kts 174°
2026-04-19 07:02 -26.17317 153.02172 8962 ft 156 kts 173°
2026-04-19 07:02 -26.18395 153.02346 8961 ft 157 kts 174°
2026-04-19 07:02 -26.19456 153.02516 8961 ft 156 kts 174°
2026-04-19 07:03 -26.20533 153.02690 8961 ft 156 kts 174°
2026-04-19 07:03 -26.21610 153.02863 8958 ft 156 kts 174°
2026-04-19 07:03 -26.22685 153.03036 8962 ft 156 kts 174°
2026-04-19 07:03 -26.23759 153.03209 8962 ft 156 kts 173°
2026-04-19 07:04 -26.24835 153.03382 8961 ft 156 kts 174°
2026-04-19 07:04 -26.25912 153.03556 8960 ft 156 kts 174°
2026-04-19 07:04 -26.26990 153.03729 8960 ft 156 kts 174°
2026-04-19 07:04 -26.28068 153.03903 8960 ft 156 kts 174°
2026-04-19 07:05 -26.29147 153.04077 8963 ft 157 kts 174°
2026-04-19 07:05 -26.30224 153.04251 8957 ft 156 kts 174°
2026-04-19 07:05 -26.31302 153.04425 8965 ft 157 kts 174°
2026-04-19 07:05 -26.32382 153.04599 8960 ft 157 kts 174°
2026-04-19 07:06 -26.33445 153.04770 8961 ft 156 kts 174°
2026-04-19 07:06 -26.34522 153.04945 8960 ft 156 kts 174°
2026-04-19 07:06 -26.35596 153.05117 8960 ft 156 kts 174°
2026-04-19 07:06 -26.36669 153.05291 8959 ft 156 kts 174°
2026-04-19 07:07 -26.37746 153.05464 8963 ft 156 kts 174°
2026-04-19 07:07 -26.38822 153.05639 8961 ft 156 kts 174°
2026-04-19 07:07 -26.39898 153.05813 8960 ft 156 kts 174°
2026-04-19 07:07 -26.40978 153.05986 8956 ft 156 kts 174°
2026-04-19 07:08 -26.42056 153.06161 8954 ft 157 kts 174°
2026-04-19 07:08 -26.43131 153.06335 8957 ft 156 kts 174°
2026-04-19 07:08 -26.44208 153.06509 8957 ft 156 kts 174°
2026-04-19 07:08 -26.45283 153.06682 8957 ft 156 kts 174°
2026-04-19 07:09 -26.46360 153.06856 8957 ft 156 kts 174°
2026-04-19 07:09 -26.47435 153.07030 8957 ft 156 kts 174°
2026-04-19 07:09 -26.48511 153.07205 8956 ft 156 kts 174°
2026-04-19 07:09 -26.49586 153.07379 8952 ft 156 kts 174°
2026-04-19 07:10 -26.50647 153.07550 8957 ft 156 kts 174°
2026-04-19 07:10 -26.51724 153.07724 8952 ft 156 kts 174°
2026-04-19 07:10 -26.52800 153.07898 8956 ft 156 kts 174°
2026-04-19 07:10 -26.53877 153.08072 8949 ft 156 kts 174°
2026-04-19 07:11 -26.54955 153.08248 8954 ft 157 kts 174°
2026-04-19 07:11 -26.56028 153.08425 8956 ft 154 kts 175°
2026-04-19 07:11 -26.57091 153.08598 8952 ft 154 kts 175°
2026-04-19 07:11 -26.58161 153.08767 8949 ft 156 kts 174°
2026-04-19 07:12 -26.59237 153.08940 8955 ft 156 kts 174°
2026-04-19 07:12 -26.60318 153.09026 8952 ft 156 kts 184°
2026-04-19 07:12 -26.61401 153.08971 8953 ft 156 kts 184°
2026-04-19 07:12 -26.62486 153.08929 8954 ft 156 kts 184°
2026-04-19 07:13 -26.63558 153.08891 8955 ft 156 kts 183°
2026-04-19 07:13 -26.64644 153.08853 8955 ft 156 kts 183°
2026-04-19 07:13 -26.65731 153.08815 8955 ft 156 kts 184°
2026-04-19 07:13 -26.66818 153.08775 8955 ft 156 kts 183°
2026-04-19 07:14 -26.67906 153.08736 8955 ft 156 kts 184°
2026-04-19 07:14 -26.68992 153.08697 8956 ft 156 kts 184°
2026-04-19 07:14 -26.70078 153.08658 8957 ft 156 kts 183°
2026-04-19 07:14 -26.71165 153.08620 8958 ft 156 kts 183°
2026-04-19 07:15 -26.72251 153.08580 8965 ft 156 kts 184°
2026-04-19 07:15 -26.73338 153.08541 8966 ft 156 kts 183°
2026-04-19 07:15 -26.75511 153.08462 8969 ft 156 kts 184°
2026-04-19 07:16 -26.76596 153.08423 8973 ft 156 kts 183°
2026-04-19 07:16 -26.77681 153.08384 8972 ft 156 kts 184°
2026-04-19 07:16 -26.78764 153.08344 8973 ft 156 kts 183°
2026-04-19 07:16 -26.79849 153.08306 8970 ft 156 kts 183°
2026-04-19 07:17 -26.80936 153.08264 8974 ft 156 kts 184°
2026-04-19 07:17 -26.82024 153.08224 8973 ft 156 kts 183°
2026-04-19 07:17 -26.83109 153.08186 8974 ft 156 kts 183°
2026-04-19 07:17 -26.84192 153.08150 8819 ft 158 kts 183°
2026-04-19 07:18 -26.85233 153.08122 8560 ft 143 kts 183°
2026-04-19 07:18 -26.86201 153.08092 8296 ft 136 kts 184°
2026-04-19 07:18 -26.87139 153.08058 8039 ft 134 kts 184°
2026-04-19 07:18 -26.88081 153.08023 7792 ft 141 kts 184°
2026-04-19 07:19 -26.89099 153.07982 7566 ft 151 kts 184°
2026-04-19 07:19 -26.90163 153.07942 7359 ft 154 kts 184°
2026-04-19 07:19 -26.91247 153.07904 7151 ft 156 kts 184°
2026-04-19 07:19 -26.92312 153.07867 6937 ft 149 kts 184°
2026-04-19 07:20 -26.93329 153.07834 6719 ft 144 kts 184°
2026-04-19 07:20 -26.94325 153.07798 6503 ft 143 kts 184°
2026-04-19 07:20 -26.95316 153.07762 6273 ft 142 kts 185°
2026-04-19 07:20 -26.95970 153.07738 6120 ft 142 kts 185°
2026-04-19 07:21 -26.97299 153.07690 5812 ft 143 kts 184°
2026-04-19 07:21 -26.97958 153.07666 5663 ft 143 kts 185°
2026-04-19 07:21 -26.98955 153.07629 5441 ft 144 kts 185°
2026-04-19 07:21 -26.99954 153.07593 5221 ft 144 kts 185°
2026-04-19 07:22 -27.00963 153.07557 4998 ft 146 kts 185°
2026-04-19 07:22 -27.01980 153.07521 4782 ft 146 kts 185°
2026-04-19 07:22 -27.02999 153.07482 4555 ft 146 kts 185°
2026-04-19 07:22 -27.04017 153.07444 4323 ft 147 kts 184°
2026-04-19 07:23 -27.05036 153.07408 4108 ft 147 kts 184°
2026-04-19 07:23 -27.06059 153.07372 3884 ft 147 kts 185°
2026-04-19 07:23 -27.07082 153.07333 3663 ft 146 kts 184°
2026-04-19 07:23 -27.08094 153.07297 3446 ft 148 kts 182°
2026-04-19 07:24 -27.09131 153.07259 3223 ft 149 kts 181°
2026-04-19 07:24 -27.10173 153.07220 3000 ft 151 kts 180°
2026-04-19 07:24 -27.11228 153.07181 2774 ft 152 kts 177°
2026-04-19 07:24 -27.12290 153.07145 2528 ft 153 kts 178°
2026-04-19 07:25 -27.13361 153.07106 2278 ft 152 kts 176°
2026-04-19 07:25 -27.14423 153.07068 2029 ft 153 kts 177°
2026-04-19 07:25 -27.15469 153.07031 1786 ft 152 kts 175°
2026-04-19 07:25 -27.16535 153.06995 1531 ft 155 kts 177°
2026-04-19 07:26 -27.17583 153.06954 1463 ft 147 kts 176°
2026-04-19 07:26 -27.18586 153.06915 1452 ft 141 kts 177°
2026-04-19 07:26 -27.19561 153.06885 1445 ft 137 kts 175°
2026-04-19 07:26 -27.20509 153.06869 1426 ft 139 kts 175°
2026-04-19 07:27 -27.21456 153.06904 1282 ft 121 kts 153°
2026-04-19 07:27 -27.21595 153.07585 971 ft 108 kts 47°
2026-04-19 07:27 -27.20853 153.07623 895 ft 116 kts 346°
2026-04-19 07:27 -27.20088 153.07328 923 ft 121 kts 346°
2026-04-19 07:28 -27.19496 153.06712 910 ft 118 kts 284°
2026-04-19 07:28 -27.19509 153.05838 866 ft 112 kts 258°
2026-04-19 07:28 -27.19675 153.04989 770 ft 107 kts 246°
2026-04-19 07:28 -27.20204 153.04599 569 ft 93 kts 163°
2026-04-19 07:29 -27.20715 153.05019 452 ft 89 kts 129°
2026-04-19 07:29 -27.20840 153.05617 252 ft 82 kts 75°
2026-04-19 07:29 -27.20706 153.06188 100 ft 72 kts 79°
2026-04-19 07:29 -27.20592 153.06713 9 ft 63 kts 80°
2026-04-19 07:30 -27.20521 153.07054 12 ft 29 kts 77°
2026-04-19 07:30 -27.20499 153.07211 13 ft 11 kts 127°
2026-04-19 07:30 -27.20562 153.07233 11 ft 11 kts 166°
2026-04-19 07:30 -27.20621 153.07275 9 ft 13 kts 98°
2026-04-19 07:31 -27.20623 153.07327 9 ft 0 kts